Date String (YYYY-MM-DD hh:mm:ss) UTC,Instrument flags,Ambient pressure (hPa),Sample flow (lpm),Bypass flow (lpm),Sample temperature (°C),Ambient temperature (°C),ASC tube jacket temperature (°C),LED temperature (°C),Box temperature (°C),Sample RH (%),Span deviation,Mass concentration (μg/m³),Mass concentration (μg/m³),Mass concentration (μg/m³)
DateTimeUTC,F1_M11,P_M11,Q1_M11,Q2_M11,T1_M11,T2_M11,T3_M11,T4_M11,T5_M11,U1_M11,ZSPAN_M11,X0_M11,X2_M11,X1_M11
2022-09-20 07:00:00,,0826.9,4.99,0.00,30.3,29.1,00.0,39.0,32.1,10.8,0000.0,0002.38,0001.53,0001.27
2022-09-20 07:01:00,,0827.0,5.02,0.00,30.3,29.1,00.0,39.0,32.2,10.9,0000.0,0002.51,0001.60,0001.27
2022-09-20 07:02:00,,0827.0,4.98,0.00,30.3,29.1,00.0,39.0,32.2,10.9,0000.0,0002.61,0001.61,0001.27
2022-09-20 07:03:00,,0826.9,4.99,0.00,30.4,29.1,00.0,39.0,32.2,10.8,0000.0,0002.67,0001.62,0001.28
2022-09-20 07:04:00,,0826.9,5.01,0.00,30.4,29.1,00.0,39.1,32.2,10.5,0000.0,0002.52,0001.64,0001.30
2022-09-20 07:05:00,,0826.9,4.99,0.00,30.4,29.1,00.0,39.1,32.2,10.3,0000.0,0002.55,0001.66,0001.32
2022-09-20 07:06:00,,0826.9,5.00,0.00,30.4,29.1,00.0,39.1,32.2,10.5,0000.0,0002.48,0001.64,0001.31
2022-09-20 07:07:00,,0826.9,5.01,0.00,30.4,29.2,00.0,39.1,32.2,10.3,0000.0,0002.40,0001.63,0001.32
2022-09-20 07:08:00,,0826.9,5.00,0.00,30.4,29.2,00.0,39.1,32.2,10.3,0000.0,0002.41,0001.64,0001.32
2022-09-20 07:09:00,,0826.9,5.00,0.00,30.4,28.1,00.0,39.1,32.2,10.3,0000.0,0002.52,0001.67,0001.33
2022-09-20 07:10:00,,0826.9,5.02,0.00,30.4,26.9,00.0,39.1,32.1,10.6,0000.0,0002.75,0001.71,0001.33
2022-09-20 07:11:00,,0826.9,5.00,0.00,30.3,26.8,00.0,39.0,32.0,10.7,0000.0,0002.79,0001.74,0001.33
2022-09-20 07:12:00,,0826.9,5.00,0.00,30.2,27.0,00.0,39.0,31.8,10.8,0000.0,0002.70,0001.68,0001.33
2022-09-20 07:13:00,,0826.9,4.99,0.00,30.2,27.4,00.0,39.0,31.7,10.9,0000.0,0002.60,0001.67,0001.33
2022-09-20 07:14:00,,0826.8,5.00,0.00,30.1,27.6,00.0,38.9,31.7,10.9,0000.0,0002.80,0001.71,0001.32
2022-09-20 07:15:00,,0826.8,5.00,0.00,30.1,27.9,00.0,38.9,31.7,11.0,0000.0,0002.84,0001.72,0001.32
2022-09-20 07:16:00,,0826.8,5.00,0.00,30.1,28.1,00.0,38.9,31.7,11.0,0000.0,0002.98,0001.76,0001.32
2022-09-20 07:17:00,,0826.9,5.01,0.00,30.1,28.2,00.0,38.9,31.8,11.0,0000.0,0003.93,0001.81,0001.32
2022-09-20 07:18:00,,0826.9,5.01,0.00,30.1,28.3,00.0,38.9,31.8,11.0,0000.0,0004.76,0001.83,0001.32
2022-09-20 07:19:00,,0826.9,4.99,0.00,30.1,28.4,00.0,38.9,31.9,11.1,0000.0,0004.71,0001.82,0001.32
2022-09-20 07:20:00,,0826.9,5.01,0.00,30.1,28.5,00.0,38.9,31.9,11.1,0000.0,0004.77,0001.86,0001.33
2022-09-20 07:21:00,,0826.8,5.00,0.00,30.1,28.6,00.0,38.9,31.9,11.1,0000.0,0004.71,0001.91,0001.33
2022-09-20 07:22:00,,0826.9,5.01,0.00,30.1,28.6,00.0,38.9,31.9,11.0,0000.0,0004.58,0001.87,0001.33
2022-09-20 07:23:00,,0826.9,5.00,0.00,30.1,28.7,00.0,38.9,31.9,10.9,0000.0,0004.58,0001.87,0001.33
2022-09-20 07:24:00,,0826.9,4.99,0.00,30.1,28.7,00.0,38.9,31.9,10.6,0000.0,0004.61,0001.89,0001.34
2022-09-20 07:25:00,,0826.9,5.01,0.00,30.1,28.7,00.0,38.9,32.0,10.4,0000.0,0005.03,0001.82,0001.33
2022-09-20 07:26:00,,0826.9,4.99,0.00,30.1,28.8,00.0,38.9,32.0,10.4,0000.0,0005.12,0001.78,0001.33
2022-09-20 07:27:00,,0827.0,4.99,0.00,30.2,28.8,00.0,38.9,32.0,10.4,0000.0,0004.91,0001.73,0001.32
2022-09-20 07:28:00,,0826.9,5.01,0.00,30.2,28.8,00.0,38.9,32.0,10.4,0000.0,0004.24,0001.68,0001.31
2022-09-20 07:29:00,,0826.9,4.99,0.00,30.2,28.8,00.0,38.9,32.0,10.6,0000.0,0003.14,0001.65,0001.31
2022-09-20 07:30:00,,0826.9,5.00,0.00,30.2,28.8,00.0,38.9,32.0,10.7,0000.0,0004.03,0001.68,0001.31
2022-09-20 07:31:00,,0826.9,5.02,0.00,30.2,28.9,00.0,38.9,32.0,10.6,0000.0,0004.97,0001.65,0001.31
2022-09-20 07:32:00,,0826.9,4.99,0.00,30.2,28.9,00.0,38.9,32.1,10.5,0000.0,0005.60,0001.57,0001.29
2022-09-20 07:33:00,,0826.9,4.99,0.00,30.2,28.9,00.0,39.0,32.1,10.4,0000.0,0005.56,0001.55,0001.29
2022-09-20 07:34:00,,0826.9,5.01,0.00,30.3,29.0,00.0,39.0,32.1,10.4,0000.0,0005.52,0001.53,0001.28
2022-09-20 07:35:00,,0826.9,5.00,0.00,30.3,29.0,00.0,39.0,32.1,10.3,0000.0,0005.38,0001.47,0001.26
2022-09-20 07:36:00,,0826.9,5.01,0.00,30.3,29.0,00.0,39.0,32.1,10.3,0000.0,0004.72,0001.46,0001.26
2022-09-20 07:37:00,,0826.9,5.01,0.00,30.3,29.0,00.0,39.0,32.1,10.3,0000.0,0004.42,0001.45,0001.26
2022-09-20 07:38:00,,0827.0,4.99,0.00,30.3,29.0,00.0,39.0,32.2,10.4,0000.0,0004.38,0001.43,0001.26
2022-09-20 07:39:00,,0827.2,5.00,0.00,30.4,29.1,00.0,39.1,32.2,10.3,0000.0,0004.35,0001.42,0001.26
2022-09-20 07:40:00,,0827.3,5.00,0.00,30.4,29.1,00.0,39.1,32.2,10.3,0000.0,0004.35,0001.42,0001.27
2022-09-20 07:41:00,,0826.9,4.99,0.00,30.4,29.1,00.0,39.1,32.2,10.4,0000.0,0003.62,0001.38,0001.26
2022-09-20 07:42:00,,0826.9,5.01,0.00,30.4,29.1,00.0,39.1,32.2,10.4,0000.0,0002.42,0001.36,0001.26
2022-09-20 07:43:00,,0826.9,4.99,0.00,30.4,29.1,00.0,39.1,32.2,10.4,0000.0,0001.74,0001.37,0001.26
2022-09-20 07:44:00,,0826.9,5.01,0.00,30.4,29.1,00.0,39.1,32.2,10.4,0000.0,0001.61,0001.38,0001.25
2022-09-20 07:45:00,,0827.0,4.99,0.00,30.4,29.2,00.0,39.2,32.3,10.4,0000.0,0001.73,0001.42,0001.25
2022-09-20 07:46:00,,0827.0,5.01,0.00,30.5,29.2,00.0,39.2,32.3,10.5,0000.0,0001.81,0001.46,0001.26
2022-09-20 07:47:00,,0827.0,5.00,0.00,30.5,29.2,00.0,39.2,32.3,10.5,0000.0,0001.85,0001.46,0001.26
2022-09-20 07:48:00,,0827.0,5.00,0.00,30.5,29.2,00.0,39.2,32.3,10.5,0000.0,0001.85,0001.46,0001.26
2022-09-20 07:49:00,,0827.0,5.01,0.00,30.5,29.2,00.0,39.2,32.3,10.5,0000.0,0001.89,0001.48,0001.26
2022-09-20 07:50:00,,0827.0,4.99,0.00,30.5,29.0,00.0,39.2,32.3,10.4,0000.0,0001.91,0001.49,0001.26
2022-09-20 07:51:00,,0827.1,4.99,0.00,30.5,27.5,00.0,39.2,32.2,10.4,0000.0,0001.98,0001.51,0001.26
2022-09-20 07:52:00,,0827.0,5.00,0.00,30.5,26.9,00.0,39.1,32.1,10.5,0000.0,0001.98,0001.49,0001.24
2022-09-20 07:53:00,,0827.0,5.00,0.00,30.4,27.0,00.0,39.1,32.0,10.5,0000.0,0002.13,0001.52,0001.24
2022-09-20 07:54:00,,0827.0,5.00,0.00,30.3,27.2,00.0,39.0,31.8,10.5,0000.0,0002.39,0001.54,0001.24
2022-09-20 07:55:00,,0827.0,5.00,0.00,30.2,27.5,00.0,39.0,31.8,10.6,0000.0,0002.35,0001.52,0001.24
2022-09-20 07:56:00,,0826.9,5.00,0.00,30.2,27.8,00.0,39.0,31.8,10.7,0000.0,0002.97,0001.50,0001.25
2022-09-20 07:57:00,,0827.1,5.00,0.00,30.1,28.0,00.0,39.0,31.8,10.7,0000.0,0003.06,0001.47,0001.25
2022-09-20 07:58:00,,0827.1,5.00,0.00,30.1,28.1,00.0,38.9,31.8,10.7,0000.0,0003.09,0001.49,0001.26
2022-09-20 07:59:00,,0827.0,5.00,0.00,30.1,28.3,00.0,38.9,31.9,10.7,0000.0,0003.14,0001.52,0001.26
